Pratt, KS

2:28 AM CDT on September 26, 2016 (GMT -0500)
Pratt Industrial

Weather History for KPTT - January, 2014

Change the Weather History Date:

Wednesday, January 1, 2014

  Actual Average (KP28) Record (KP28)
Temperature  
Mean Temperature 22 °F 33 °F  
Max Temperature 32 °F 44 °F 69 °F (1918)
Min Temperature 12 °F 21 °F -6 °F (1919)
Degree Days  
Heating Degree Days 43 32  
Month to date heating degree days 32  
Since 1 July heating degree days 1831  
Cooling Degree Days 0 0  
Month to date cooling degree days 0  
Year to date cooling degree days 0  
Moisture  
Dew Point 19 °F    
Average Humidity 84    
Maximum Humidity 93    
Minimum Humidity 68    
Precipitation  
Precipitation 0.00 in 0.02 in 0.77 in (1992)
Month to date precipitation 0.02  
Year to date precipitation 0.02  
Snow  
Snow 0.00 in 0.00 in - ()
Month to date snowfall 0.0  
Since 1 July snowfall 2.9  
Snow Depth -    
Sea Level Pressure  
Sea Level Pressure 30.08 in    
Wind  
Wind Speed 14 mph (North)    
Max Wind Speed 30 mph    
Max Gust Speed 37 mph    
Visibility 8 miles    
Events Snow    
T = Trace of Precipitation, MM = Missing Value Source: NWS Daily Summary

Daily Weather History Graph

Daily Weather History Graph

Search for Another Location

Airport or City:

Trip Planner

Search our weather history database for the weather conditions in past years. The results will help you decide how hot, cold, wet, or windy it might be!

Date:

Astronomy

Jan. 01, 2014 Rise Set
Actual Time 7:50 AM CST 5:27 PM CST
Civil Twilight 7:21 AM CST 5:56 PM CST
Nautical Twilight 6:48 AM CST 6:29 PM CST
Astronomical Twilight 6:16 AM CST 7:01 PM CST
Moon 7:43 AM CST (1/1) 6:12 PM CST (1/1)
Length of Visible Light 10h 35m
Length of Day
9h 36m
New Moon, 0% of the Moon is Illuminated
Jan 1
New Moon
Jan 7
First Quarter
Jan 15
Full
Jan 23
Last Quarter
Jan 30
New

Hourly Weather History & Observations

Time (CST) Temp. Windchill Dew Point Humidity Pressure Visibility Wind Dir Wind Speed Gust Speed Precip Events Conditions
12:15 AM 32.0 °F 24.2 °F 26.6 °F 80% 29.99 in 10.0 mi SSW 9.2 mph - N/A   Clear
12:35 AM 32.0 °F 24.8 °F 26.6 °F 80% 29.98 in 10.0 mi South 8.1 mph - N/A   Clear
12:55 AM 32.0 °F 23.0 °F 26.6 °F 80% 29.96 in 10.0 mi South 11.5 mph - N/A   Clear
1:15 AM 30.2 °F 20.8 °F 26.6 °F 86% 29.95 in 10.0 mi SSW 11.5 mph - N/A   Clear
1:35 AM 32.0 °F 24.2 °F 26.6 °F 80% 29.95 in 10.0 mi SSW 9.2 mph - N/A   Clear
1:55 AM 30.2 °F 20.8 °F 26.6 °F 86% 29.94 in 10.0 mi South 11.5 mph - N/A   Clear
2:15 AM 30.2 °F 20.8 °F 26.6 °F 86% 29.94 in 10.0 mi South 11.5 mph - N/A   Clear
2:35 AM 30.2 °F 20.2 °F 26.6 °F 86% 29.93 in 10.0 mi SSW 12.7 mph - N/A   Clear
2:55 AM 30.2 °F 21.3 °F 26.6 °F 86% 29.92 in 10.0 mi SSW 10.4 mph - N/A   Clear
3:15 AM 32.0 °F 24.8 °F 26.6 °F 80% 29.92 in 10.0 mi SSW 8.1 mph - N/A   Clear
3:35 AM 30.2 °F 22.6 °F 26.6 °F 86% 29.91 in 10.0 mi South 8.1 mph - N/A   Clear
3:55 AM 30.2 °F 24.3 °F 26.6 °F 86% 29.91 in 10.0 mi South 5.8 mph - N/A   Clear
4:15 AM 32.0 °F 24.8 °F 26.6 °F 80% 29.91 in 10.0 mi South 8.1 mph - N/A   Clear
4:35 AM 30.2 °F 26.7 °F 26.6 °F 86% 29.90 in 10.0 mi South 3.5 mph - N/A   Clear
4:55 AM 30.2 °F 25.4 °F 26.6 °F 86% 29.90 in 10.0 mi SE 4.6 mph - N/A   Clear
5:15 AM 28.4 °F 20.4 °F 24.8 °F 86% 29.90 in 10.0 mi NNE 8.1 mph - N/A   Clear
5:35 AM 28.4 °F 21.2 °F 26.6 °F 93% 29.90 in 10.0 mi NE 6.9 mph - N/A   Clear
5:55 AM 26.6 °F 22.6 °F 23.0 °F 86% 29.91 in 10.0 mi NE 3.5 mph - N/A   Clear
6:15 AM 28.4 °F 20.4 °F 24.8 °F 86% 29.91 in 10.0 mi NE 8.1 mph - N/A   Clear
6:35 AM 28.4 °F 22.2 °F 26.6 °F 93% 29.90 in 10.0 mi ENE 5.8 mph - N/A   Clear
6:55 AM 28.4 °F 23.3 °F 24.8 °F 86% 29.90 in 10.0 mi ENE 4.6 mph - N/A   Clear
7:15 AM 26.6 °F 20.0 °F 24.8 °F 93% 29.90 in 10.0 mi ESE 5.8 mph - N/A   Clear
7:35 AM 28.4 °F 22.2 °F 26.6 °F 93% 29.92 in 10.0 mi ENE 5.8 mph - N/A   Clear
7:55 AM 28.4 °F 22.2 °F 24.8 °F 86% 29.92 in 10.0 mi East 5.8 mph - N/A   Clear
8:15 AM 26.6 °F 17.5 °F 24.8 °F 93% 29.93 in 10.0 mi NE 9.2 mph - N/A   Clear
8:35 AM 28.4 °F 18.0 °F 26.6 °F 93% 29.95 in 10.0 mi NE 12.7 mph - N/A   Clear
8:55 AM 28.4 °F 17.0 °F 26.6 °F 93% 29.95 in 10.0 mi NNE 15.0 mph - N/A   Clear
9:15 AM 26.6 °F 13.1 °F 23.0 °F 86% 29.99 in 5.0 mi North 19.6 mph - N/A   Mostly Cloudy
9:35 AM 24.8 °F 11.5 °F 23.0 °F 93% 29.99 in 5.0 mi NNE 17.3 mph - N/A   Overcast
9:55 AM 23.0 °F 9.6 °F 21.2 °F 93% 30.00 in 5.0 mi NNE 16.1 mph 23.0 mph N/A   Overcast
10:15 AM 23.0 °F 8.0 °F 21.2 °F 93% 30.01 in 5.0 mi NNE 20.7 mph - N/A   Overcast
10:35 AM 24.8 °F 9.3 °F 21.2 °F 86% 30.01 in 7.0 mi NNE 24.2 mph - N/A   Overcast
10:55 AM 23.0 °F 8.3 °F 19.4 °F 86% 30.01 in 7.0 mi North 19.6 mph 26.5 mph N/A   Overcast
11:15 AM 23.0 °F 8.0 °F 19.4 °F 86% 30.00 in 7.0 mi NNE 20.7 mph 24.2 mph N/A   Overcast
11:35 AM 23.0 °F 8.0 °F 19.4 °F 86% 30.02 in 10.0 mi North 20.7 mph - N/A   Mostly Cloudy
11:55 AM 23.0 °F 7.6 °F 19.4 °F 86% 30.03 in 10.0 mi North 21.9 mph 25.3 mph N/A   Mostly Cloudy
12:15 PM 23.0 °F 6.9 °F 17.6 °F 80% 30.04 in 10.0 mi North 24.2 mph 29.9 mph N/A   Overcast
12:35 PM 23.0 °F 5.7 °F 17.6 °F 80% 30.03 in 10.0 mi North 28.8 mph - N/A   Overcast
12:55 PM 23.0 °F 6.6 °F 17.6 °F 80% 30.03 in 10.0 mi North 25.3 mph 31.1 mph N/A   Overcast
1:15 PM 23.0 °F 6.0 °F 15.8 °F 74% 30.04 in 10.0 mi North 27.6 mph 33.4 mph N/A   Overcast
1:35 PM 23.0 °F 5.4 °F 15.8 °F 74% 30.05 in 10.0 mi North 29.9 mph 35.7 mph N/A   Overcast
1:55 PM 23.0 °F 6.0 °F 14.0 °F 68% 30.05 in 10.0 mi North 27.6 mph 34.5 mph N/A   Mostly Cloudy
2:15 PM 23.0 °F 6.3 °F 14.0 °F 68% 30.07 in 10.0 mi North 26.5 mph - N/A   Scattered Clouds
2:35 PM 23.0 °F 6.6 °F 14.0 °F 68% 30.08 in 10.0 mi North 25.3 mph 32.2 mph N/A   Scattered Clouds
2:55 PM 23.0 °F 6.3 °F 14.0 °F 68% 30.09 in 10.0 mi North 26.5 mph 33.4 mph N/A   Mostly Cloudy
3:15 PM 23.0 °F 5.7 °F 14.0 °F 68% 30.11 in 10.0 mi North 28.8 mph 36.8 mph N/A   Overcast
3:35 PM 21.2 °F 4.2 °F 14.0 °F 74% 30.13 in 10.0 mi North 25.3 mph 32.2 mph N/A   Overcast
3:55 PM 19.4 °F 1.4 °F 12.2 °F 74% 30.14 in 7.0 mi North 26.5 mph 34.5 mph N/A Snow Light Snow
4:15 PM 19.4 °F 2.8 °F 14.0 °F 80% 30.16 in 0.8 mi North 21.9 mph 28.8 mph N/A Snow Light Snow
4:35 PM 17.6 °F -1.3 °F 14.0 °F 86% 30.17 in 1.5 mi North 27.6 mph 35.7 mph N/A Snow Light Snow
4:55 PM 17.6 °F -0.6 °F 14.0 °F 86% 30.19 in 1.0 mi North 25.3 mph 33.4 mph N/A Snow Light Snow
5:15 PM 17.6 °F 0.5 °F 14.0 °F 86% 30.20 in 0.5 mi North 21.9 mph 27.6 mph N/A Snow Snow
5:35 PM 15.8 °F -3.1 °F 12.2 °F 86% 30.21 in 1.5 mi North 25.3 mph 33.4 mph N/A Snow Light Snow
5:55 PM 15.8 °F -3.1 °F 12.2 °F 86% 30.23 in 1.5 mi North 25.3 mph 31.1 mph N/A Snow Light Snow
6:15 PM 15.8 °F -3.4 °F 12.2 °F 86% 30.26 in 1.2 mi North 26.5 mph 32.2 mph N/A Snow Light Snow
6:35 PM 15.8 °F -3.1 °F 12.2 °F 86% 30.27 in 1.2 mi North 25.3 mph 33.4 mph N/A Snow Light Snow
6:55 PM 15.8 °F -2.7 °F 12.2 °F 86% 30.28 in 2.0 mi North 24.2 mph - N/A Snow Light Snow
7:15 PM 15.8 °F -1.9 °F 12.2 °F 86% 30.29 in 3.0 mi North 21.9 mph 31.1 mph N/A Snow Light Snow
7:35 PM 17.6 °F -0.3 °F 12.2 °F 79% 30.30 in 4.0 mi North 24.2 mph 27.6 mph N/A Snow Light Snow
7:55 PM 17.6 °F 0.1 °F 14.0 °F 86% 30.31 in 5.0 mi North 23.0 mph - N/A   Mostly Cloudy
8:15 PM 17.6 °F 0.5 °F 12.2 °F 79% 30.32 in 10.0 mi North 21.9 mph 27.6 mph N/A   Mostly Cloudy
8:35 PM 15.8 °F -0.6 °F 12.2 °F 86% 30.34 in 10.0 mi North 18.4 mph - N/A   Scattered Clouds
8:55 PM 15.8 °F -1.1 °F 12.2 °F 86% 30.34 in 10.0 mi North 19.6 mph - N/A   Clear
9:15 PM 14.0 °F -4.7 °F 10.4 °F 86% 30.34 in 10.0 mi North 23.0 mph 28.8 mph N/A   Clear
9:35 PM 14.0 °F -3.0 °F 10.4 °F 86% 30.35 in 10.0 mi North 18.4 mph - N/A   Clear
9:55 PM 14.0 °F -3.0 °F 10.4 °F 86% 30.35 in 10.0 mi North 18.4 mph 24.2 mph N/A   Clear
10:15 PM 14.0 °F -3.0 °F 8.6 °F 79% 30.35 in 10.0 mi North 18.4 mph - N/A   Clear
10:35 PM 14.0 °F -3.4 °F 8.6 °F 79% 30.35 in 10.0 mi North 19.6 mph 26.5 mph N/A   Clear
10:55 PM 12.2 °F -5.3 °F 8.6 °F 85% 30.36 in 10.0 mi North 18.4 mph - N/A   Clear
11:15 PM 12.2 °F -4.8 °F 8.6 °F 85% 30.36 in 10.0 mi North 17.3 mph 21.9 mph N/A   Clear
11:35 PM 12.2 °F -3.1 °F 8.6 °F 85% 30.38 in 10.0 mi North 13.8 mph - N/A   Clear
11:55 PM 12.2 °F -3.7 °F 6.8 °F 79% 30.38 in 10.0 mi NNW 15.0 mph - N/A   Clear